Location: Knowlton
(51.2333°N, 1.2667°E)
Time: 22:30:33
(UTC+00:00)

ZACube-1 - Pass Details

Date: 02 December 2021
Orbit: 582 x 665 km, 97.6° (Epoch: 21 January)

Event Time Altitude Azimuth Distance (km) Brightness Sun altitude
Rises 03:53:51 0° 18° (NNE) 2,990 ? -34.1°
Reaches altitude 10° 03:56:10 10° 25° (NNE) 2,083 ? -33.8°
Enters shadow 03:57:07 16° 30° (NNE) 1,726 ? -33.6°
